FW0527 Weather Reports


time (UTC)temp
C
wind
direction
speed
KPH
gust
KPH
rain 1hr
cm
rain 24hr
cm
rain mn
cm
humidity
%
barometer
mb
20260510120031 11 114 0.0 0.0 0.00 0.00 0.00 28 1010.7
20260510114528 11 114 0.0 0.0 0.00 0.00 0.00 26 1010.7
20260510113026 11 114 0.0 0.0 0.00 0.00 0.00 28 1010.8
20260510111525 11 114 0.0 0.0 0.00 0.00 0.00 22 1011.0
20260510110027 11 125 0.0 0.0 0.00 0.00 0.00 29 1011.1
20260510104521 11 123 0.0 0.0 0.00 0.00 0.00 25 1011.0
20260510103019 11 124 0.0 0.0 0.00 0.00 0.00 24 1011.1
20260510101517 11 123 0.0 0.0 0.00 0.00 0.00 24 1011.2
20260510100016 11 111 0.0 0.0 0.00 0.00 0.00 25 1011.3
20260510094515 11 111 0.0 0.0 0.00 0.00 0.00 28 1011.4
20260510093013 10 110 0.0 0.0 0.00 0.00 0.00 24 1011.4
20260510091513 10 113 0.0 1.6 0.00 0.00 0.00 26 1011.3
20260510090010 10 116 0.0 0.0 0.00 0.00 0.00 27 1011.4
20260510084508 10 117 0.0 0.0 0.00 0.00 0.00 31 1011.4
20260510083005 10 121 0.0 0.0 0.00 0.00 0.00 30 1011.6
20260510081507 10 116 0.0 0.0 0.00 0.00 0.00 29 1011.7
20260510080002 10 115 0.0 0.0 0.00 0.00 0.00 32 1011.7
20260510074601 10 107 0.0 0.0 0.00 0.00 0.00 34 1011.8
20260510073113 10 107 0.0 0.0 0.00 0.00 0.00 38 1011.8
20260510071604 10 105 0.0 0.0 0.00 0.00 0.00 44 1011.9
20260510070051 10 105 0.0 0.0 0.00 0.00 0.00 40 1011.9
20260510064559 10 111 0.0 0.0 0.00 0.00 0.00 46 1011.8
20260510063050 10 118 0.0 0.0 0.00 0.00 0.00 46 1011.8
20260510061551 10 121 0.0 0.0 0.00 0.00 0.00 49 1011.8
20260510060049 11 132 0.0 0.0 0.00 0.00 0.00 56 1011.6
20260510054548 11 132 0.0 0.0 0.00 0.00 0.00 58 1011.7
20260510053049 12 132 0.0 0.0 0.00 0.00 0.00 61 1011.8
20260510051550 12 132 0.0 0.0 0.00 0.00 0.00 63 1011.8
20260510050047 12 132 0.0 0.0 0.00 0.00 0.00 65 1011.7
20260510044550 13 137 0.0 0.0 0.00 0.00 0.00 67 1011.7
20260510043053 13 109 0.0 0.0 0.00 0.00 0.00 68 1011.8
20260510041549 13 302 0.0 0.0 0.00 0.00 0.00 66 1011.4
20260510040050 14 301 0.0 0.0 0.00 0.00 0.00 64 1011.3
20260510034547 15 301 0.0 0.0 0.00 0.00 0.00 61 1011.3
20260510033046 16 301 0.0 0.0 0.00 0.00 0.00 58 1011.0
20260510031553 17 301 0.0 0.0 0.00 0.00 0.00 56 1010.9
20260510030044 18 301 0.0 0.0 0.00 0.00 0.00 54 1010.7
20260510024544 19 301 0.0 0.0 0.00 0.00 0.00 53 1010.5
20260510023043 20 301 0.0 0.0 0.00 0.00 0.00 52 1010.6
20260510021543 20 301 0.0 0.0 0.00 0.00 0.00 51 1010.5
20260510020042 21 301 0.0 0.0 0.00 0.00 0.00 49 1010.5
20260510014542 21 304 0.0 0.0 0.00 0.00 0.00 48 1010.5
20260510013041 22 306 0.0 0.0 0.00 0.00 0.00 46 1010.4
20260510011541 22 327 0.0 0.0 0.00 0.00 0.00 45 1010.4
20260510010040 23 320 0.0 3.2 0.00 0.00 0.00 43 1010.4
20260510004541 24 263 0.0 1.6 0.00 0.00 0.00 42 1010.4
20260510003041 24 262 0.0 0.0 0.00 0.00 0.00 40 1010.4
20260510001539 25 279 0.0 0.0 0.00 0.00 0.00 40 1010.4
20260510000037 25 302 0.0 4.8 0.00 0.00 0.00 39 1010.4
20260509234538 25 217 0.0 0.0 0.00 0.00 0.00 37 1010.4
20260509233036 26 272 0.0 8.0 0.00 0.00 0.00 38 1010.5
20260509231535 26 331 0.0 3.2 0.00 0.00 0.00 37 1010.6
20260509230033 26 312 0.0 8.0 0.00 0.00 0.00 35 1010.5
20260509224535 27 304 0.0 0.0 0.00 0.00 0.00 35 1010.8
20260509223031 28 298 0.0 3.2 0.00 0.00 0.00 34 1010.8
20260509221529 28 311 0.0 14.5 0.00 0.00 0.00 29 1010.9
20260509220028 29 308 0.0 17.7 0.00 0.00 0.00 30 1011.0
20260509214524 30 335 0.0 19.3 0.00 0.00 0.00 29 1011.2
20260509213023 30 285 0.0 14.5 0.00 0.00 0.00 27 1011.3
20260509211521 30 296 0.0 17.7 0.00 0.00 0.00 27 1011.4
20260509210028 30 213 0.0 12.9 0.00 0.00 0.00 25 1011.4
20260509204516 30 313 0.0 16.1 0.00 0.00 0.00 21 1011.7
20260509203017 30 306 0.0 3.2 0.00 0.00 0.00 21 1011.9
20260509201513 30 298 0.0 16.1 0.00 0.00 0.00 21 1011.9
20260509200011 30 309 0.0 11.3 0.00 0.00 0.00 18 1012.0
20260509194509 30 307 0.0 9.7 0.00 0.00 0.00 18 1012.1
20260509193012 30 327 0.0 1.6 0.00 0.00 0.00 17 1012.1
20260509191508 30 310 0.0 6.4 0.00 0.00 0.00 18 1012.3
20260509190110 30 313 0.0 12.9 0.00 0.00 0.00 19 1012.3
20260509184505 30 302 0.0 12.9 0.00 0.00 0.00 19 1012.3
20260509183004 30 342 0.0 1.6 0.00 0.00 0.00 18 1012.4
20260509181502 30 306 0.0 1.6 0.00 0.00 0.00 18 1012.4
20260509180101 29 280 0.0 1.6 0.00 0.00 0.00 20 1012.3
20260509174555 28 300 0.0 0.0 0.00 0.00 0.00 18 1012.3
20260509173052 27 300 0.0 0.0 0.00 0.00 0.00 19 1012.3
20260509171548 26 304 0.0 0.0 0.00 0.00 0.00 21 1012.4
20260509170043 26 310 0.0 0.0 0.00 0.00 0.00 23 1012.5
20260509164547 24 300 0.0 0.0 0.00 0.00 0.00 19 1012.4
20260509163037 23 331 0.0 0.0 0.00 0.00 0.00 24 1012.3
20260509161530 21 308 0.0 0.0 0.00 0.00 0.00 33 1012.2
20260509160026 19 307 0.0 0.0 0.00 0.00 0.00 35 1012.1
20260509154521 16 307 0.0 0.0 0.00 0.00 0.00 48 1011.9
20260509153017 13 307 0.0 0.0 0.00 0.00 0.00 55 1012.1
20260509151513 12 307 0.0 0.0 0.00 0.00 0.00 62 1012.1
20260509150016 11 307 0.0 0.0 0.00 0.00 0.00 72 1012.0
20260509144505 11 307 0.0 0.0 0.00 0.00 0.00 75 1012.1
20260509143002 10 307 0.0 0.0 0.00 0.00 0.00 74 1012.2
20260509141600 9 307 0.0 0.0 0.00 0.00 0.00 73 1012.1
20260509140104 9 307 0.0 0.0 0.00 0.00 0.00 70 1011.9
20260509134626 8 307 0.0 0.0 0.00 0.00 0.00 70 1011.8
20260509133058 8 307 0.0 0.0 0.00 0.00 0.00 71 1011.7
20260509131555 8 307 0.0 0.0 0.00 0.00 0.00 69 1011.7
20260509130053 7 307 0.0 0.0 0.00 0.00 0.00 67 1011.7
20260509124552 7 307 0.0 0.0 0.00 0.00 0.00 64 1011.7
20260509123053 7 307 0.0 0.0 0.00 0.00 0.00 60 1011.7
20260509121552 7 307 0.0 0.0 0.00 0.00 0.00 56 1011.6